Tracking 28518 objects as of 1-Mar-2024
HD Live streaming from Space Station
objects crossing your sky now

STARLINK-30954

Track STARLINK-30954 now!
10-day predictions
STARLINK-30954 is classified as:


NORAD ID: 58407
Int'l Code: 2023-180F
Perigee: 565.3 km
Apogee: 567.2 km
Inclination: 43.0 °
Period: 95.8 minutes
Semi major axis: 6937 km
RCS: Unknown
Launch date: November 22, 2023
Source: United States (US)
Launch site: AIR FORCE EASTERN TEST RANGE (AFETR)
Your satellite tracking list
Your tracking list is empty




NASA's NSSDC Master Catalog

Two Line Element Set (TLE):
1 58407U 23180F   24060.91667824  .00006273  00000-0  47908-3 0  9992
2 58407  42.9999 109.9755 0001404 262.9465 267.8564 15.02529860  5806
Source of the keplerian elements: AFSPC